TimeEDT,TemperatureF,Dew PointF,Humidity,Sea Level PressureIn,VisibilityMPH,Wind Direction,Wind SpeedMPH,Gust SpeedMPH,PrecipitationIn,Events,Conditions,WindDirDegrees,DateUTC
12:15 AM,68.0,64.4,88,30.12,10.0,Calm,Calm,-,N/A,,Clear,0,2013-06-17 04:15:00
12:55 AM,68.0,64.4,88,30.11,10.0,Calm,Calm,-,N/A,,Clear,0,2013-06-17 04:55:00
1:15 AM,68.0,64.4,88,30.11,10.0,Calm,Calm,-,N/A,,Scattered Clouds,0,2013-06-17 05:15:00
1:35 AM,69.8,64.4,83,30.10,10.0,Calm,Calm,-,N/A,,Scattered Clouds,0,2013-06-17 05:35:00
2:15 AM,68.0,64.4,88,30.10,10.0,Calm,Calm,-,N/A,,Mostly Cloudy,0,2013-06-17 06:15:00
2:35 AM,68.0,64.4,88,30.10,10.0,Calm,Calm,-,N/A,,Scattered Clouds,0,2013-06-17 06:35:00
2:55 AM,68.0,64.4,88,30.10,10.0,Calm,Calm,-,N/A,,Scattered Clouds,0,2013-06-17 06:55:00
3:15 AM,68.0,64.4,88,30.09,10.0,Calm,Calm,-,N/A,Thunderstorm,Thunderstorm,0,2013-06-17 07:15:00
3:35 AM,68.0,64.4,88,30.09,10.0,Calm,Calm,-,N/A,,Mostly Cloudy,0,2013-06-17 07:35:00
3:55 AM,68.0,64.4,88,30.09,10.0,Calm,Calm,-,N/A,,Mostly Cloudy,0,2013-06-17 07:55:00
4:15 AM,68.0,64.4,88,30.09,10.0,West,3.5,-,N/A,,Mostly Cloudy,270,2013-06-17 08:15:00
4:35 AM,68.0,64.4,88,30.10,10.0,Calm,Calm,-,N/A,,Overcast,0,2013-06-17 08:35:00
4:55 AM,68.0,64.4,88,30.10,10.0,Calm,Calm,-,N/A,,Mostly Cloudy,0,2013-06-17 08:55:00
5:15 AM,68.0,64.4,88,30.10,10.0,Calm,Calm,-,N/A,,Light Drizzle,0,2013-06-17 09:15:00
5:35 AM,66.2,64.4,94,30.10,10.0,Calm,Calm,-,N/A,Rain,Light Rain,0,2013-06-17 09:35:00
5:55 AM,66.2,64.4,94,30.10,7.0,SW,3.5,-,N/A,Rain,Light Rain,230,2013-06-17 09:55:00
6:35 AM,66.2,64.4,94,30.11,7.0,West,3.5,-,N/A,,Scattered Clouds,260,2013-06-17 10:35:00
6:55 AM,68.0,64.4,88,30.10,10.0,West,3.5,-,N/A,,Mostly Cloudy,270,2013-06-17 10:55:00
7:15 AM,68.0,64.4,88,30.10,10.0,NW,3.5,-,N/A,,Overcast,310,2013-06-17 11:15:00
7:35 AM,68.0,64.4,88,30.10,10.0,Calm,Calm,-,N/A,,Overcast,0,2013-06-17 11:35:00
7:55 AM,68.0,64.4,88,30.10,10.0,Calm,Calm,-,N/A,,Overcast,0,2013-06-17 11:55:00
8:15 AM,68.0,64.4,88,30.10,10.0,Calm,Calm,-,N/A,,Overcast,0,2013-06-17 12:15:00
8:35 AM,68.0,64.4,88,30.10,10.0,Calm,Calm,-,N/A,,Overcast,0,2013-06-17 12:35:00
9:15 AM,68.0,66.2,94,30.10,10.0,Calm,Calm,-,N/A,,Overcast,0,2013-06-17 13:15:00
9:35 AM,69.8,64.4,83,30.10,10.0,Calm,Calm,-,N/A,,Overcast,0,2013-06-17 13:35:00
9:55 AM,69.8,66.2,88,30.10,10.0,Calm,Calm,-,N/A,,Overcast,0,2013-06-17 13:55:00
10:15 AM,69.8,68.0,94,30.10,10.0,South,3.5,-,N/A,,Overcast,190,2013-06-17 14:15:00
10:35 AM,73.4,66.2,78,30.09,10.0,SW,3.5,-,N/A,,Mostly Cloudy,230,2013-06-17 14:35:00
10:55 AM,73.4,66.2,78,30.10,10.0,Calm,Calm,-,N/A,,Clear,0,2013-06-17 14:55:00
11:15 AM,77.0,66.2,69,30.10,10.0,Calm,Calm,-,N/A,,Clear,0,2013-06-17 15:15:00
11:35 AM,77.0,64.4,65,30.10,10.0,Calm,Calm,-,N/A,,Clear,0,2013-06-17 15:35:00
11:55 AM,77.0,64.4,65,30.09,10.0,Calm,Calm,-,N/A,,Clear,0,2013-06-17 15:55:00
12:15 PM,78.8,64.4,61,30.09,10.0,Calm,Calm,-,N/A,,Scattered Clouds,0,2013-06-17 16:15:00
12:35 PM,78.8,64.4,61,30.09,10.0,SSE,3.5,-,N/A,,Mostly Cloudy,150,2013-06-17 16:35:00
12:55 PM,80.6,66.2,61,30.08,10.0,Calm,Calm,-,N/A,,Overcast,0,2013-06-17 16:55:00
1:15 PM,80.6,64.4,58,30.08,10.0,Calm,Calm,-,N/A,,Mostly Cloudy,0,2013-06-17 17:15:00
1:35 PM,80.6,64.4,58,30.08,10.0,Calm,Calm,-,N/A,,Scattered Clouds,0,2013-06-17 17:35:00
1:55 PM,80.6,66.2,61,30.08,10.0,South,5.8,-,N/A,,Clear,190,2013-06-17 17:55:00
2:15 PM,80.6,66.2,61,30.06,10.0,South,3.5,-,N/A,,Scattered Clouds,190,2013-06-17 18:15:00
2:35 PM,78.8,68.0,69,30.06,10.0,SW,5.8,-,N/A,,Clear,230,2013-06-17 18:35:00
2:55 PM,78.8,68.0,69,30.06,10.0,SSW,4.6,-,N/A,Thunderstorm,Clear,210,2013-06-17 18:55:00
3:15 PM,78.8,69.8,74,30.06,10.0,SSW,3.5,-,N/A,,Clear,200,2013-06-17 19:15:00
3:35 PM,77.0,69.8,78,30.05,10.0,SW,4.6,-,N/A,,Scattered Clouds,220,2013-06-17 19:35:00
3:55 PM,78.8,69.8,74,30.04,10.0,Calm,Calm,-,N/A,,Scattered Clouds,0,2013-06-17 19:55:00
4:15 PM,78.8,69.8,74,30.04,10.0,Calm,Calm,-,N/A,,Clear,0,2013-06-17 20:15:00
4:35 PM,78.8,68.0,69,30.03,10.0,Calm,Calm,-,N/A,,Scattered Clouds,0,2013-06-17 20:35:00
4:55 PM,78.8,69.8,74,30.03,10.0,Calm,Calm,-,N/A,,Mostly Cloudy,0,2013-06-17 20:55:00
5:15 PM,77.0,69.8,78,30.03,10.0,SSE,6.9,-,N/A,,Scattered Clouds,150,2013-06-17 21:15:00
5:35 PM,77.0,68.0,74,30.03,10.0,SE,4.6,-,N/A,,Mostly Cloudy,140,2013-06-17 21:35:00
5:55 PM,77.0,66.2,69,30.03,10.0,SE,4.6,-,N/A,,Mostly Cloudy,130,2013-06-17 21:55:00
6:15 PM,77.0,66.2,69,30.03,10.0,SE,5.8,-,N/A,,Mostly Cloudy,140,2013-06-17 22:15:00
6:35 PM,78.8,66.2,65,30.03,10.0,SE,4.6,-,N/A,,Scattered Clouds,130,2013-06-17 22:35:00
6:55 PM,77.0,64.4,65,30.03,10.0,SE,3.5,-,N/A,,Clear,140,2013-06-17 22:55:00
7:15 PM,77.0,64.4,65,30.03,10.0,SE,4.6,-,N/A,,Clear,130,2013-06-17 23:15:00
7:35 PM,75.2,66.2,73,30.03,10.0,SE,3.5,-,N/A,,Clear,140,2013-06-17 23:35:00
7:55 PM,75.2,68.0,78,30.03,10.0,Calm,Calm,-,N/A,,Clear,0,2013-06-17 23:55:00
8:15 PM,73.4,68.0,83,30.03,10.0,Calm,Calm,-,N/A,,Clear,0,2013-06-18 00:15:00
8:35 PM,71.6,68.0,88,30.03,10.0,Calm,Calm,-,N/A,,Clear,0,2013-06-18 00:35:00
8:55 PM,71.6,68.0,88,30.03,10.0,West,3.5,-,N/A,,Clear,260,2013-06-18 00:55:00
9:15 PM,71.6,68.0,88,30.03,10.0,Calm,Calm,-,N/A,,Clear,0,2013-06-18 01:15:00
9:35 PM,71.6,68.0,88,30.03,10.0,Calm,Calm,-,N/A,,Scattered Clouds,0,2013-06-18 01:35:00
9:55 PM,69.8,68.0,94,30.04,10.0,Calm,Calm,-,N/A,,Scattered Clouds,0,2013-06-18 01:55:00
10:15 PM,71.6,68.0,88,30.04,10.0,Calm,Calm,-,N/A,,Mostly Cloudy,0,2013-06-18 02:15:00
10:35 PM,69.8,68.0,94,30.04,10.0,Calm,Calm,-,N/A,,Mostly Cloudy,0,2013-06-18 02:35:00
10:55 PM,69.8,68.0,94,30.05,10.0,Calm,Calm,-,N/A,,Scattered Clouds,0,2013-06-18 02:55:00
11:15 PM,69.8,68.0,94,30.05,10.0,Calm,Calm,-,N/A,,Overcast,0,2013-06-18 03:15:00
11:35 PM,69.8,68.0,94,30.05,10.0,Calm,Calm,-,N/A,,Overcast,0,2013-06-18 03:35:00
11:55 PM,69.8,68.0,94,30.05,10.0,SSW,3.5,-,N/A,,Mostly Cloudy,210,2013-06-18 03:55:00